Simultaneous Nadir Overpasses (SNOs) Predictions

Prediction of SNOs between METOP-A and NOAA-19 Satellite Orbit:

Table of predicted SNOs for the next 14.0 days since TLE Epoch: 7/23/2016
Index Date (METOP-A) Time (METOP-A) Lat,Lon (METOP-A) SZA (METOP-A ) Date (NOAA-19) Time (NOAA-19) Lat,Lon (NOAA-19) SZA (NOAA-19 ) Distance(km) Time Diff (sec)
1 08/02/2016 03:00:29 -76.40, -43.90 121.34 08/02/2016 02:59:15 -76.42, -44.61 121.32 18.81 74
2 08/02/2016 03:51:11 76.28, 123.00 58.55 08/02/2016 03:50:15 76.31, 123.05 58.58 2.97 56
3 08/02/2016 04:41:53 -76.29, -69.63 121.43 08/02/2016 04:41:14 -76.29, -69.62 121.44 0.95 39
4 08/02/2016 05:32:33 76.26, 97.59 58.55 08/02/2016 05:32:16 76.26, 97.71 58.55 3.09 17
5 08/02/2016 06:23:15 -76.27, -95.05 121.44 08/02/2016 06:23:16 -76.29, -95.12 121.42 2.43 1
6 08/02/2016 07:13:55 76.24, 72.18 58.55 08/02/2016 07:14:18 76.26, 72.20 58.57 2.49 23
7 08/02/2016 08:04:37 -76.25,-120.46 121.44 08/02/2016 08:05:17 -76.24,-120.46 121.45 1.30 40
8 08/02/2016 08:55:17 76.22, 46.77 58.54 08/02/2016 08:56:19 76.22, 46.86 58.54 2.39 62
9 08/02/2016 09:46:03 -76.05,-146.50 121.62 08/02/2016 09:47:15 -76.06,-145.31 121.61 31.83 72




NCC Satellite Simultaneous Nadir Overpasses (SNOs) Prediction Service
